Kenai, AK

4:06 AM AKDT on July 28, 2017 (GMT -0800)
Kenai Municipal

Weather History for PAEN - January, 2013

Change the Weather History Date:

Monday, January 14, 2013

  Actual Average Record
Temperature  
Mean Temperature 34 °F -  
Max Temperature 37 °F 20 °F 44 °F (1997)
Min Temperature 28 °F 1 °F -39 °F (1973)
Degree Days  
Heating Degree Days 32    
Moisture  
Dew Point 31 °F    
Average Humidity 89    
Maximum Humidity 100    
Minimum Humidity 72    
Precipitation  
Precipitation 0.25 in - - ()
Sea Level Pressure  
Sea Level Pressure 29.66 in    
Wind  
Wind Speed 8 mph (SSW)    
Max Wind Speed 30 mph    
Max Gust Speed 37 mph    
Visibility 8 miles    
Events Rain    
Averages and records for this station are not official NWS values.
T = Trace of Precipitation, MM = Missing Value Source: NWS Daily Summary

Daily Weather History Graph

Daily Weather History Graph

Search for Another Location

Airport or City:

Trip Planner

Search our weather history database for the weather conditions in past years. The results will help you decide how hot, cold, wet, or windy it might be!

Date:

Astronomy

Jan. 14, 2013 Rise Set
Actual Time 9:57 AM AKST 4:31 PM AKST
Civil Twilight 9:03 AM AKST 5:25 PM AKST
Nautical Twilight 8:08 AM AKST 6:21 PM AKST
Astronomical Twilight 7:17 AM AKST 7:12 PM AKST
Moon 10:24 AM AKST (1/14) 9:48 PM AKST (1/14)
Length of Visible Light 8h 22m
Length of Day
6h 33m
Waxing Crescent, 12% of the Moon is Illuminated
Jan 14
Waxing Crescent
Jan 18
First Quarter
Jan 26
Full
Feb 3
Last Quarter
Feb 9
New

Hourly Weather History & Observations

Time (AKST) Temp. Windchill Dew Point Humidity Pressure Visibility Wind Dir Wind Speed Gust Speed Precip Events Conditions
12:53 AM 33.1 °F - 33.1 °F 100% 29.61 in 10.0 mi Calm Calm - 0.01 in Rain Light Rain
1:53 AM 33.1 °F 27.7 °F 33.1 °F 100% 29.59 in 10.0 mi North 5.8 mph - 0.05 in Rain Light Rain
3:53 AM 34.0 °F 31.0 °F 34.0 °F 100% 29.54 in 10.0 mi North 3.5 mph - 0.05 in Rain Light Rain
4:53 AM 34.0 °F - 34.0 °F 100% 29.53 in 10.0 mi Calm Calm - 0.05 in Rain Light Rain
5:53 AM 34.0 °F - 34.0 °F 100% 29.53 in 10.0 mi Calm Calm - 0.05 in Rain Light Rain
6:28 AM 33.8 °F - 33.8 °F 100% 29.51 in 2.0 mi Calm Calm - 0.02 in Rain Light Rain
6:35 AM 33.8 °F - 33.8 °F 100% 29.51 in 1.8 mi Calm Calm - 0.03 in Rain Light Rain
6:45 AM 33.8 °F 30.8 °F 33.8 °F 100% 29.52 in 3.0 mi SSW 3.5 mph - 0.03 in Rain Light Rain
6:53 AM 33.1 °F 30.0 °F 33.1 °F 100% 29.53 in 2.0 mi WSW 3.5 mph - 0.04 in Rain Light Rain
7:53 AM 33.1 °F 27.7 °F 33.1 °F 100% 29.52 in 7.0 mi SSE 5.8 mph - 0.00 in   Overcast
8:53 AM 34.0 °F 28.8 °F 33.1 °F 96% 29.51 in 10.0 mi West 5.8 mph - 0.00 in   Partly Cloudy
9:33 AM 33.8 °F 27.7 °F 32.0 °F 93% 29.53 in 8.0 mi WNW 6.9 mph - N/A   Scattered Clouds
9:53 AM 32.0 °F 28.7 °F 32.0 °F 100% 29.56 in 7.0 mi SW 3.5 mph - N/A   Mostly Cloudy
10:53 AM 33.1 °F 26.9 °F 33.1 °F 100% 29.59 in 10.0 mi South 6.9 mph - 0.00 in Rain Light Rain
11:53 AM 37.9 °F 27.9 °F 37.9 °F 100% 29.60 in 10.0 mi South 19.6 mph 28.8 mph 0.00 in   Partly Cloudy
12:53 PM 37.9 °F 27.3 °F 33.1 °F 83% 29.66 in 10.0 mi South 21.9 mph 28.8 mph N/A   Clear
1:53 PM 37.9 °F 28.2 °F 33.1 °F 83% 29.68 in 10.0 mi South 18.4 mph 27.6 mph N/A   Scattered Clouds
2:53 PM 37.9 °F 28.9 °F 34.0 °F 86% 29.71 in 10.0 mi South 16.1 mph - N/A   Overcast
3:53 PM 37.9 °F 29.2 °F 33.1 °F 83% 29.74 in 10.0 mi South 15.0 mph - N/A   Partly Cloudy
4:53 PM 37.0 °F 25.6 °F 28.9 °F 73% 29.75 in 10.0 mi South 24.2 mph 33.4 mph N/A   Clear
5:53 PM 35.1 °F 23.0 °F 28.0 °F 76% 29.80 in 10.0 mi South 24.2 mph - N/A   Clear
6:53 PM 35.1 °F 21.8 °F 27.0 °F 72% 29.83 in 10.0 mi South 29.9 mph 36.8 mph N/A   Clear
7:53 PM 33.1 °F 20.9 °F 26.1 °F 75% 29.86 in 10.0 mi South 21.9 mph 32.2 mph N/A   Clear
8:53 PM 32.0 °F 17.9 °F 24.1 °F 73% 29.88 in 10.0 mi South 28.8 mph 34.5 mph N/A   Clear
9:53 PM 30.9 °F 17.5 °F 24.1 °F 76% 29.91 in 10.0 mi South 24.2 mph 31.1 mph N/A   Clear
10:53 PM 30.0 °F 16.6 °F 21.9 °F 72% 29.94 in 10.0 mi South 23.0 mph 32.2 mph N/A   Clear
11:53 PM 28.9 °F 17.3 °F 21.0 °F 72% 29.97 in 10.0 mi South 16.1 mph - N/A   Clear